Location: Newark
(40.4881°N, 5.6117°W)
Time: 21:17:24
(UTC+00:00)

N. Korean satellite - Visible Passes

Search period start: 15 October 2019 00:00
Search period end: 25 October 2019 00:00
Orbit: 455 x 508 km, 97.2° (Epoch: 14 October)

Date Brightness Start Highest point End Pass type
(mag) Time Alt. Az. Time Alt. Az. Time Alt. Az.
15 Oct 10.0 05:24:50 10° NE 05:27:09 16° E 05:29:29 10° SE visible
16 Oct 10.7 18:43:30 10° W 18:43:49 10° W 18:44:09 10° W visible
17 Oct 7.4 06:06:33 10° NNE 06:10:06 58° E 06:13:42 10° S visible
17 Oct 9.6 18:15:40 10° SSW 18:18:21 21° W 18:21:03 10° NW visible
18 Oct 9.1 05:41:39 10° NE 05:44:45 27° E 05:47:53 10° SSE visible
19 Oct 10.2 05:17:29 10° ENE 05:19:19 13° E 05:21:10 10° ESE visible
20 Oct 10.2 18:34:20 10° WSW 18:35:57 13° W 18:37:35 10° WNW visible
21 Oct 7.9 05:58:48 10° NNE 06:02:18 46° E 06:05:51 10° S visible
21 Oct 9.1 18:07:32 10° SSW 18:10:28 26° W 18:13:27 10° NW visible
22 Oct 9.5 05:34:01 10° NE 05:36:55 22° E 05:39:50 10° SSE visible
23 Oct 10.5 05:10:26 10° ENE 05:11:27 11° E 05:12:27 10° ESE visible
24 Oct 9.9 18:25:49 10° SW 18:28:01 16° W 18:30:15 10° NW visible
